This is the latest recevied weather packets stored in our database for station/object SQ9RHX-13. If no packets are shown the sender has not sent any weather packets the latest 10 day(s).
| Time | Temp. | Humidity | Pressure | Rain* | Wind** | Luminosity | Snow |
|---|---|---|---|---|---|---|---|
| 1777788003 | 16.67° C | 47% | 1020.9 hPa | 0 mm | - | 185 W/m² | - |
| 1777787703 | 16.67° C | 46% | 1021.1 hPa | 0 mm | - | 113 W/m² | - |
| 1777787404 | 16.67° C | 48% | 1021 hPa | 0 mm | - | 164 W/m² | - |
| 1777787104 | 16.11° C | 48% | 1021.1 hPa | 0 mm | - | 154 W/m² | - |
| 1777786803 | 16.11° C | 48% | 1021.3 hPa | 0 mm | - | 145 W/m² | - |
| 1777786505 | 15.56° C | 49% | 1021.1 hPa | 0 mm | - | 134 W/m² | - |
| 1777786203 | 15.56° C | 50% | 1021.2 hPa | 0 mm | - | 124 W/m² | - |
| 1777785903 | 15° C | 52% | 1021.1 hPa | 0 mm | - | 115 W/m² | - |
| 1777785604 | 15° C | 51% | 1021.1 hPa | 0 mm | - | 108 W/m² | - |
| 1777785305 | 15° C | 52% | 1021.1 hPa | 0 mm | - | 99 W/m² | - |
| 1777785003 | 15° C | 52% | 1021.1 hPa | 0 mm | - | 92 W/m² | - |
| 1777784702 | 14.44° C | 53% | 1021 hPa | 0 mm | - | 83 W/m² | - |
| 1777784406 | 13.89° C | 53% | 1021 hPa | 0 mm | - | 75 W/m² | - |
| 1777784103 | 13.89° C | 55% | 1021 hPa | 0 mm | - | 60 W/m² | - |
| 1777783804 | 13.89° C | 55% | 1021 hPa | 0 mm | - | 55 W/m² | - |
| 1777783503 | 13.33° C | 57% | 1021.1 hPa | 0 mm | - | 51 W/m² | - |
| 1777783206 | 13.33° C | 56% | 1021 hPa | 0 mm | - | 48 W/m² | - |
| 1777782905 | 12.78° C | 58% | 1021.1 hPa | 0 mm | - | 44 W/m² | - |
| 1777782603 | 12.22° C | 60% | 1021.1 hPa | 0 mm | - | 41 W/m² | - |
| 1777782303 | 11.67° C | 62% | 1021 hPa | 0 mm | - | 39 W/m² | - |
| 1777782004 | 11.11° C | 63% | 1021.1 hPa | 0 mm | - | 26 W/m² | - |
| 1777781705 | 11.11° C | 63% | 1021 hPa | 0 mm | - | 25 W/m² | - |
| 1777781403 | 11.11° C | 63% | 1021 hPa | 0 mm | - | 23 W/m² | - |
| 1777781105 | 11.11° C | 63% | 1021.1 hPa | 0 mm | - | 21 W/m² | - |
| 1777780803 | 10.56° C | 64% | 1021.1 hPa | 0 mm | - | 19 W/m² | - |
* Rain latest hour (hover to see other rain measurements)
** Current wind speed in m/s (hover to see current wind gust speed)